Theta_e
334 332 332 330 327 327 327 324 317 312 310 311 310 308 306 305 305 304 303 303 302 302
332 332 330 329 329 329 327 325 314 312 309 309 309 309 307 305 305 304 303 303 302 301
330 328 324 322 323 324 321 319 312 310 309 308 308 307 305 304 304 303 304 304 303 302
322 322 322 321 320 318 315 310 309 309 309 308 308 307 305 305 305 304 304 303 303 306
322 321 319 319 317 316 312 310 310 310 310 310 309 307 306 305 306 305 304 303 306 307
321 321 319 318 318 316 311 311 311 311 310 309 308 306 306 306 304 303 303 306 306 306
319 319 317 315 314 313 312 311 310 310 310 310 308 309 307 306 304 303 304 307 307 306
318 317 315 316 314 314 312 312 311 311 309 309 309 309 307 305 302 302 305 306 304 302
318 317 316 316 314 312 311 311 311 309 308 308 310 307 307 308 303 303 302 298 299 299
319 319 318 318 314 311 310 307 307 308 309 308 305 305 303 304 301 298 294 296 295 294
320 321 320 316 313 309 305 305 308 306 304 303 303 301 300 299 294 293 292 292 294 293
322 320 317 314 311 305 305 303 303 303 302 296 294 297 297 295 292 292 293 295 296 297
321 318 313 310 306 305 304 303 303 299 296 297 292 296 296 294 292 293 293 293 295 295
313 313 310 306 304 303 301 300 298 294 292 292 293 292 295 295 294 292 293 293 293 293
Wind_Speed
4 4 4 5 4 5 5 5 5 5 6 6 6 5 5 3 3 4 4 6 5 4
5 5 5 6 4 3 3 3 6 6 6 5 5 6 5 3 5 4 4 6 5 4
5 5 5 6 7 6 5 5 6 6 5 4 3 4 4 3 4 4 5 5 6 5
6 6 5 4 4 5 4 7 6 6 4 3 3 3 3 6 6 5 6 5 6 8
6 6 6 4 4 5 6 4 6 5 4 3 3 2 3 5 4 5 6 8 4 6
7 4 6 6 3 5 6 5 4 4 2 1 2 3 4 5 5 6 7 6 6 6
7 6 6 6 6 6 5 4 3 2 2 2 2 3 4 5 5 5 7 6 6 5
4 5 4 3 4 4 3 2 2 1 2 2 3 3 4 5 6 7 5 5 4 5
5 5 3 1 2 3 2 2 2 3 3 4 3 6 9 7 6 4 3 4 5 6
3 5 4 5 3 3 3 2 3 3 4 5 6 9 9 8 4 5 5 5 5 7
4 3 4 3 3 2 2 2 2 3 4 5 6 10 12 13 6 6 5 5 5 6
3 1 3 4 3 2 2 1 3 3 6 7 6 12 11 7 5 4 5 5 6 5
2 5 3 4 4 1 1 4 3 7 7 9 6 10 11 9 4 7 7 6 6 11
4 5 4 3 1 2 4 5 6 8 5 6 6 7 12 12 6 5 6 6 6 6
Wind_Direction
167 156 148 130 150 141 183 174 158 145 159 148 135 132 156 179 202 196 221 239 226 249
126 133 139 126 118 138 151 154 147 157 148 157 155 167 178 203 232 219 242 247 248 236
115 123 113 131 140 156 139 130 141 148 162 159 183 203 187 238 249 236 256 243 249 263
102 105 88 90 115 120 122 131 142 159 154 182 223 237 229 257 264 248 264 267 240 260
106 106 101 90 122 110 118 134 146 153 167 213 240 253 241 260 270 252 256 254 249 241
118 115 116 136 169 136 141 143 144 146 175 254 275 266 251 243 263 259 253 255 240 250
136 151 153 152 142 143 148 138 132 140 197 225 255 276 296 288 268 246 249 253 248 267
127 140 128 151 149 132 120 124 130 185 260 279 297 291 308 297 268 260 274 278 333 324
181 128 137 217 155 148 161 158 168 215 262 306 319 322 301 300 290 309 358 2 347 330
151 139 173 202 182 163 194 154 212 277 358 346 323 314 333 340 44 57 31 2 334 319
159 190 187 156 183 171 122 219 323 3 21 359 14 29 53 55 46 29 351 321 310 308
183 194 182 199 156 151 123 345 26 34 26 76 49 44 44 39 16 335 333 340 325 333
181 194 186 152 149 164 183 57 60 65 68 79 60 36 33 27 5 352 334 319 334 333
151 147 136 138 136 31 39 61 73 87 72 61 48 23 18 12 354 328 317 326 331 323